This demonstration page uses our WeatherBlox Daily Observations layout. Learn more.

Left ArrowRight Arrow

Hourly Observations for July 26, 2015

Temp ( °F °C ) Dew Point ( °F °C ) Humidity (%) Winds ( mph kmh ) Pressure ( in mb ) Visibility ( mi km ) Precip ( " mm )
12:53 am 00:53 Clear with Light Rain 71 21.7 69 20.6 94 94 N N/A 29.95 1014 8 13 N/A
1:53 am 01:53 Clear with Light Rain 70 21.1 68 20 93 93 N N/A 29.93 1014 5 8 N/A
2:53 am 02:53 Clear with Mist and Fog 69 20.6 67 19.4 93 93 N N/A 29.93 1014 5 8 N/A
3:53 am 03:53 Clear with Mist and Fog 68 20 67 19.4 96 96 N N/A 29.93 1014 5 8 N/A
4:53 am 04:53 Clear with Mist and Fog 68 20 67 19.4 96 96 N N/A 29.94 1014 3 5 N/A
5:53 am 05:53 Partly Cloudy with Mist and Fog 69 20.6 67 19.4 93 93 N N/A 29.93 1014 4 6 N/A
6:10 am 06:10 Mostly Cloudy with Light Rain 69 20.6 67 19.4 93 93 N N/A 29.94 1014 4 6 N/A
6:43 am 06:43 Partly Cloudy with Mist and Fog 69 20.6 68 20 96 96 N N/A 29.94 1014 3 4 N/A
6:51 am 06:51 Partly Cloudy with Mist and Fog 70 21 66 19 88 88 N N/A 29.94 1014 3 5 N/A
6:53 am 06:53 Partly Cloudy with Mist and Fog 69 20.6 68 20 96 96 N N/A 29.93 1014 3 5 N/A
7:53 am 07:53 Partly Cloudy with Mist and Fog 73 22.8 69 20.6 87 87 N N/A 29.95 1014 6 10 N/A
8:01 am 08:01 Mostly Cloudy with Mist and Fog 73 22.8 70 21.1 90 90 N N/A 29.97 1015 5 8 N/A
8:53 am 08:53 Cloudy with Light Rain 75 23.9 71 21.7 88 88 N N/A 29.97 1015 6 10 N/A
9:14 am 09:14 Mostly Cloudy with Light Rain 76 24.4 71 21.7 85 85 N N/A 30.00 1016 8 13 N/A
9:53 am 09:53 Mostly Sunny 79 26.1 71 21.7 77 77 N N/A 29.96 1015 8 13 N/A
10:53 am 10:53 Partly Cloudy 83 28.3 73 22.8 72 72 VRB 3 6 29.95 1014 8 13 N/A
11:53 am 11:53 Mostly Cloudy 83 28.3 74 23.3 74 74 VRB 3 6 29.97 1015 7 11 N/A
12:53 pm 12:53 Mostly Sunny 85 29.4 75 23.9 72 72 VRB 3 6 29.97 1015 7 11 N/A
1:53 pm 13:53 Partly Cloudy 87 30.6 75 23.9 67 67 VRB 6 9 29.96 1015 8 13 N/A
2:53 pm 14:53 Partly Cloudy 86 30 76 24.4 72 72 SSW 3 6 29.95 1014 8 13 N/A
3:20 pm 15:20 Partly Cloudy with Nearby Thunderstorms 86 30 75 23.9 70 70 VRB 6 9 29.94 1014 8 13 N/A
3:39 pm 15:39 Sunny with Thunderstorms 85 29.4 74 23.3 70 70 W 5 7 29.94 1014 8 13 N/A
3:53 pm 15:53 Mostly Cloudy with Thunderstorms 81 27.2 66 18.9 61 61 NNE 6 9 29.97 1015 9 14 N/A
4:30 pm 16:30 Mostly Cloudy with Rain 75 23.9 66 18.9 74 74 S 3 6 29.97 1015 7 11 0.01 0.25
4:39 pm 16:39 Mostly Cloudy with Thunderstorms 76 24.4 69 20.6 79 79 N N/A 29.97 1015 10 16 0.01 0.25
4:53 pm 16:53 Partly Cloudy with Thunderstorms 76 24.4 68 20 77 77 N N/A 29.96 1014 10 16 0.01 0.25
5:05 pm 17:05 Mostly Cloudy with Nearby Thunderstorms 75 23.9 69 20.6 82 82 NE 5 7 29.97 1015 7 11 0.01 0.25
5:44 pm 17:44 Cloudy with Rain 74 23.3 72 22.2 94 94 N N/A 29.97 1015 2 3 0.06 1.52
5:53 pm 17:53 Cloudy with Rain 75 23.9 73 22.8 94 94 W 5 7 29.96 1015 3 5 0.07 1.78
6:03 pm 18:03 Cloudy with Rain 75 23.9 73 22.8 94 94 W 3 6 29.97 1015 3 4 0.02 0.51
6:17 pm 18:17 Mostly Cloudy with Light Rain 74 23.3 72 22.2 94 94 N N/A 29.97 1015 4 6 0.03 0.76
6:53 pm 18:53 Partly Cloudy with Light Rain 75 23.9 73 22.8 94 94 N N/A 29.94 1014 4 6 0.03 0.76
7:16 pm 19:16 Partly Cloudy with Mist and Fog 75 23.9 73 22.8 94 94 N N/A 29.97 1015 3 4 N/A
7:35 pm 19:35 Partly Cloudy with Mist and Fog 75 23.9 74 23.3 96 96 N N/A 29.94 1014 3 5 N/A
7:53 pm 19:53 Sunny with Light Rain 75 23.9 73 22.8 94 94 N N/A 29.93 1014 4 6 N/A
8:53 pm 20:53 Sunny with Mist and Fog 75 23.9 73 22.8 94 94 N 3 6 29.94 1014 5 8 N/A
9:53 pm 21:53 Clear 75 23.9 72 22.2 90 90 ENE 5 7 29.95 1014 7 11 N/A
10:53 pm 22:53 Partly Cloudy with Light Rain 74 23.3 72 22.2 94 94 N N/A 29.96 1015 6 10 N/A
11:53 pm 23:53 Mostly Cloudy with Mist and Fog 74 23.3 72 22.2 94 94 W 7 11 29.97 1015 4 6 N/A

Powered by AerisWeather